Tracking 19199 objects as of 25-Jun-2018
HD Live streaming from Space Station
objects crossing your sky now

DMSP 5D-3 F18 DEB

Track DMSP 5D-3 F18 DEB now!
10-day predictions


NORAD ID: 35953
Int'l Code: 2009-057C
Perigee: 837.6 km
Apogee: 841.2 km
Inclination: 98.6 °
Period: 101.6 minutes
Semi major axis: 7210 km
RCS: 0.056 m2 (small)
Launch date: October 18, 2009
Source: United States (US)
Launch site: AIR FORCE WESTERN TEST RANGE (AFWTR)

Note: This is SATELLITE DEBRIS
aabbcc
Your satellite tracking list
Your tracking list is empty




NASA's NSSDC Master Catalog

Two Line Element Set (TLE):
1 35953U 09057C   18175.91456198 +.00000309 +00000-0 +17188-3 0  9991
2 35953 098.6145 204.9088 0002503 266.5566 214.5141 14.17961249448588
Source of the keplerian elements: AFSPC